Time,TemperatureF,DewpointF,PressureIn,WindDirection,WindDirectionDegrees,WindSpeedMPH,WindSpeedGustMPH,Humidity,HourlyPrecipIn,Conditions,Clouds,dailyrainin,SoftwareType,DateUTC
2013-02-24 00:00:00,69.3,67.5,29.94,SW,233,0.0,2.0,94,0.00,,---,0.00,VWS V14.01,2013-02-24 05:00:00,
2013-02-24 00:05:00,69.3,67.5,29.94,SW,228,0.0,3.0,94,0.00,,---,0.00,VWS V14.01,2013-02-24 05:05:00,
2013-02-24 00:11:00,69.3,67.5,29.94,SW,225,0.0,3.0,94,0.00,,---,0.00,VWS V14.01,2013-02-24 05:11:00,
2013-02-24 00:16:00,69.3,67.5,29.94,SW,221,0.0,3.0,94,0.00,,---,0.00,VWS V14.01,2013-02-24 05:16:00,
2013-02-24 00:21:00,69.2,67.4,29.94,WSW,253,1.0,3.0,94,0.00,,---,0.00,VWS V14.01,2013-02-24 05:21:00,
2013-02-24 00:26:00,69.2,67.4,29.94,SW,232,0.0,3.0,94,0.00,,---,0.00,VWS V14.01,2013-02-24 05:26:00,
2013-02-24 00:31:00,69.1,67.3,29.94,SSE,162,0.0,3.0,94,0.00,,---,0.00,VWS V14.01,2013-02-24 05:31:00,
2013-02-24 00:36:00,69.1,67.6,29.94,WSW,249,1.0,2.0,95,0.00,,---,0.00,VWS V14.01,2013-02-24 05:36:00,
2013-02-24 00:41:00,69.0,67.5,29.93,SW,219,0.0,2.0,95,0.00,,---,0.00,VWS V14.01,2013-02-24 05:41:00,
2013-02-24 00:46:00,68.9,67.4,29.93,West,263,0.0,3.0,95,0.00,,---,0.00,VWS V14.01,2013-02-24 05:46:00,
2013-02-24 00:51:00,68.8,67.3,29.93,SSW,198,0.0,3.0,95,0.00,,---,0.00,VWS V14.01,2013-02-24 05:51:00,
2013-02-24 00:56:00,68.7,67.2,29.93,West,272,0.0,3.0,95,0.00,,---,0.00,VWS V14.01,2013-02-24 05:56:00,
2013-02-24 01:01:00,68.6,67.4,29.93,SW,217,0.0,3.0,96,0.00,,---,0.00,VWS V14.01,2013-02-24 06:01:00,
2013-02-24 01:07:00,68.7,67.5,29.93,SW,235,0.0,2.0,96,0.00,,---,0.00,VWS V14.01,2013-02-24 06:07:00,
2013-02-24 01:12:00,68.6,67.4,29.93,SSW,213,0.0,0.0,96,0.00,,---,0.00,VWS V14.01,2013-02-24 06:12:00,
2013-02-24 01:17:00,68.6,67.4,29.93,South,183,0.0,1.0,96,0.00,,---,0.00,VWS V14.01,2013-02-24 06:17:00,
2013-02-24 01:22:00,68.7,67.5,29.93,South,172,0.0,3.0,96,0.00,,---,0.00,VWS V14.01,2013-02-24 06:22:00,
2013-02-24 01:27:00,68.6,67.4,29.93,SSW,195,0.0,3.0,96,0.00,,---,0.00,VWS V14.01,2013-02-24 06:27:00,
2013-02-24 01:32:00,68.5,67.3,29.92,SW,219,0.0,1.0,96,0.00,,---,0.00,VWS V14.01,2013-02-24 06:32:00,
2013-02-24 01:37:00,68.6,67.7,29.92,South,173,0.0,2.0,97,0.00,,---,0.00,VWS V14.01,2013-02-24 06:37:00,
2013-02-24 01:42:00,68.6,67.7,29.92,SSW,197,0.0,2.0,97,0.00,,---,0.00,VWS V14.01,2013-02-24 06:42:00,
2013-02-24 01:47:00,68.5,67.6,29.92,SW,235,0.0,2.0,97,0.00,,---,0.00,VWS V14.01,2013-02-24 06:47:00,
2013-02-24 01:52:00,68.5,67.6,29.92,SW,235,0.0,2.0,97,0.00,,---,0.00,VWS V14.01,2013-02-24 06:52:00,
2013-02-24 01:57:00,68.4,67.5,29.92,SW,231,0.0,2.0,97,0.00,,---,0.00,VWS V14.01,2013-02-24 06:57:00,
2013-02-24 02:02:00,68.3,67.4,29.92,SW,231,0.0,0.0,97,0.00,,---,0.00,VWS V14.01,2013-02-24 07:02:00,
2013-02-24 02:08:00,68.2,67.3,29.92,SW,231,0.0,0.0,97,0.00,,---,0.00,VWS V14.01,2013-02-24 07:08:00,
2013-02-24 02:13:00,68.1,67.2,29.92,SW,232,0.0,1.0,97,0.00,,---,0.00,VWS V14.01,2013-02-24 07:13:00,
2013-02-24 02:18:00,68.1,67.2,29.91,SSW,212,0.0,1.0,97,0.00,,---,0.00,VWS V14.01,2013-02-24 07:18:00,
2013-02-24 02:23:00,68.1,67.2,29.91,SE,140,0.0,3.0,97,0.00,,---,0.00,VWS V14.01,2013-02-24 07:23:00,
2013-02-24 02:28:00,68.1,67.2,29.91,WSW,242,1.0,3.0,97,0.00,,---,0.00,VWS V14.01,2013-02-24 07:28:00,
2013-02-24 02:33:00,68.1,67.2,29.91,SSW,203,1.0,3.0,97,0.00,,---,0.00,VWS V14.01,2013-02-24 07:33:00,
2013-02-24 02:38:00,68.1,67.2,29.91,SW,231,2.0,5.0,97,0.00,,---,0.00,VWS V14.01,2013-02-24 07:38:00,
2013-02-24 02:43:00,68.1,67.2,29.91,SSW,197,2.0,5.0,97,0.00,,---,0.00,VWS V14.01,2013-02-24 07:43:00,
2013-02-24 02:48:00,68.1,67.2,29.91,SW,229,2.0,5.0,97,0.00,,---,0.00,VWS V14.01,2013-02-24 07:48:00,
2013-02-24 02:53:00,68.1,67.2,29.91,SSW,193,0.0,5.0,97,0.00,,---,0.00,VWS V14.01,2013-02-24 07:53:00,
2013-02-24 02:59:00,68.0,67.1,29.91,WNW,283,1.0,5.0,97,0.00,,---,0.00,VWS V14.01,2013-02-24 07:59:00,
2013-02-24 03:04:00,68.1,67.2,29.91,SW,236,1.0,3.0,97,0.00,,---,0.00,VWS V14.01,2013-02-24 08:04:00,
2013-02-24 03:09:00,68.1,67.2,29.91,SW,228,4.0,5.0,97,0.00,,---,0.00,VWS V14.01,2013-02-24 08:09:00,
2013-02-24 03:14:00,68.1,67.2,29.91,SSW,211,1.0,5.0,97,0.00,,---,0.00,VWS V14.01,2013-02-24 08:14:00,
2013-02-24 03:19:00,68.1,67.2,29.91,SSW,205,0.0,5.0,97,0.00,,---,0.00,VWS V14.01,2013-02-24 08:19:00,
2013-02-24 03:24:00,68.1,67.2,29.91,SW,224,1.0,5.0,97,0.00,,---,0.00,VWS V14.01,2013-02-24 08:24:00,
2013-02-24 03:29:00,68.1,67.2,29.91,South,173,0.0,5.0,97,0.00,,---,0.00,VWS V14.01,2013-02-24 08:29:00,
2013-02-24 03:34:00,68.0,67.1,29.91,SSE,156,2.0,3.0,97,0.00,,---,0.00,VWS V14.01,2013-02-24 08:34:00,
2013-02-24 03:39:00,68.0,67.4,29.91,SSW,203,1.0,3.0,98,0.00,,---,0.00,VWS V14.01,2013-02-24 08:39:00,
2013-02-24 03:44:00,68.0,67.1,29.91,South,177,1.0,4.0,97,0.00,,---,0.00,VWS V14.01,2013-02-24 08:44:00,
2013-02-24 03:49:00,67.9,67.0,29.90,SSW,201,1.0,4.0,97,0.00,,---,0.00,VWS V14.01,2013-02-24 08:49:00,
2013-02-24 03:54:00,67.9,67.3,29.91,SSE,162,0.0,4.0,98,0.00,,---,0.00,VWS V14.01,2013-02-24 08:54:00,
2013-02-24 03:59:00,67.9,67.3,29.90,South,169,1.0,4.0,98,0.00,,---,0.00,VWS V14.01,2013-02-24 08:59:00,
2013-02-24 04:05:00,67.9,67.3,29.90,SSE,160,0.0,3.0,98,0.00,,---,0.00,VWS V14.01,2013-02-24 09:05:00,
2013-02-24 04:10:00,67.9,67.3,29.90,SW,221,3.0,3.0,98,0.00,,---,0.00,VWS V14.01,2013-02-24 09:10:00,
2013-02-24 04:15:00,67.8,66.9,29.90,SE,124,1.0,3.0,97,0.00,,---,0.00,VWS V14.01,2013-02-24 09:15:00,
2013-02-24 04:20:00,67.8,66.9,29.90,South,169,0.0,3.0,97,0.00,,---,0.00,VWS V14.01,2013-02-24 09:20:00,
2013-02-24 04:25:00,67.8,66.9,29.90,South,179,0.0,4.0,97,0.00,,---,0.00,VWS V14.01,2013-02-24 09:25:00,
2013-02-24 04:30:00,67.7,66.8,29.90,South,190,1.0,5.0,97,0.00,,---,0.00,VWS V14.01,2013-02-24 09:30:00,
2013-02-24 04:35:00,67.6,66.7,29.90,SW,226,3.0,5.0,97,0.00,,---,0.00,VWS V14.01,2013-02-24 09:35:00,
2013-02-24 04:40:00,67.6,66.7,29.90,SSE,167,0.0,5.0,97,0.00,,---,0.00,VWS V14.01,2013-02-24 09:40:00,
2013-02-24 04:45:00,67.5,66.6,29.90,SSW,212,2.0,6.0,97,0.00,,---,0.00,VWS V14.01,2013-02-24 09:45:00,
2013-02-24 04:50:00,67.5,66.6,29.90,SSE,160,1.0,6.0,97,0.00,,---,0.00,VWS V14.01,2013-02-24 09:50:00,
2013-02-24 04:55:00,67.4,66.5,29.89,ESE,121,1.0,6.0,97,0.00,,---,0.00,VWS V14.01,2013-02-24 09:55:00,
2013-02-24 05:00:00,67.4,66.5,29.90,SSW,192,0.0,6.0,97,0.00,,---,0.00,VWS V14.01,2013-02-24 10:00:00,
2013-02-24 05:05:00,67.4,66.5,29.90,SW,222,2.0,4.0,97,0.00,,---,0.00,VWS V14.01,2013-02-24 10:05:00,
2013-02-24 05:10:00,67.4,66.5,29.90,WSW,246,5.0,5.0,97,0.00,,---,0.00,VWS V14.01,2013-02-24 10:10:00,
2013-02-24 05:16:00,67.4,66.5,29.90,SSW,203,0.0,5.0,97,0.00,,---,0.00,VWS V14.01,2013-02-24 10:16:00,
2013-02-24 05:21:00,67.4,66.5,29.90,SE,134,0.0,5.0,97,0.00,,---,0.00,VWS V14.01,2013-02-24 10:21:00,
2013-02-24 05:26:00,67.4,66.5,29.90,South,179,4.0,6.0,97,0.00,,---,0.00,VWS V14.01,2013-02-24 10:26:00,
2013-02-24 05:31:00,67.3,66.4,29.90,SW,229,1.0,6.0,97,0.00,,---,0.00,VWS V14.01,2013-02-24 10:31:00,
2013-02-24 05:36:00,67.3,66.4,29.91,North,4,0.0,3.0,97,0.00,,---,0.00,VWS V14.01,2013-02-24 10:36:00,
2013-02-24 05:41:00,67.3,66.4,29.91,SW,231,3.0,4.0,97,0.00,,---,0.00,VWS V14.01,2013-02-24 10:41:00,
2013-02-24 05:46:00,67.3,66.4,29.91,West,273,1.0,4.0,97,0.00,,---,0.00,VWS V14.01,2013-02-24 10:46:00,
2013-02-24 05:51:00,67.3,66.4,29.92,WSW,255,1.0,4.0,97,0.00,,---,0.00,VWS V14.01,2013-02-24 10:51:00,
2013-02-24 05:56:00,67.3,66.4,29.92,NW,319,0.0,4.0,97,0.00,,---,0.00,VWS V14.01,2013-02-24 10:56:00,
2013-02-24 06:01:00,67.3,66.4,29.92,SSW,204,0.0,4.0,97,0.00,,---,0.00,VWS V14.01,2013-02-24 11:01:00,
2013-02-24 06:06:00,67.3,66.4,29.92,West,267,1.0,3.0,97,0.00,,---,0.00,VWS V14.01,2013-02-24 11:06:00,
2013-02-24 06:12:00,67.3,66.4,29.92,South,173,0.0,3.0,97,0.00,,---,0.00,VWS V14.01,2013-02-24 11:12:00,
2013-02-24 06:17:00,67.3,66.4,29.92,SSE,167,0.0,4.0,97,0.00,,---,0.00,VWS V14.01,2013-02-24 11:17:00,
2013-02-24 06:22:00,67.2,66.3,29.92,SSW,205,2.0,4.0,97,0.00,,---,0.00,VWS V14.01,2013-02-24 11:22:00,
2013-02-24 06:27:00,67.2,66.3,29.92,SW,228,0.0,4.0,97,0.00,,---,0.00,VWS V14.01,2013-02-24 11:27:00,
2013-02-24 06:32:00,67.2,66.3,29.93,SW,222,1.0,4.0,97,0.00,,---,0.00,VWS V14.01,2013-02-24 11:32:00,
2013-02-24 06:37:00,67.2,66.3,29.93,SSE,148,1.0,6.0,97,0.00,,---,0.00,VWS V14.01,2013-02-24 11:37:00,
2013-02-24 06:42:00,67.2,66.3,29.93,WSW,245,0.0,6.0,97,0.00,,---,0.00,VWS V14.01,2013-02-24 11:42:00,
2013-02-24 06:47:00,67.2,66.3,29.94,West,275,1.0,6.0,97,0.00,,---,0.00,VWS V14.01,2013-02-24 11:47:00,
2013-02-24 06:52:00,67.2,66.3,29.94,SW,219,1.0,6.0,97,0.00,,---,0.00,VWS V14.01,2013-02-24 11:52:00,
2013-02-24 06:57:00,67.2,66.3,29.94,West,271,1.0,6.0,97,0.00,,---,0.00,VWS V14.01,2013-02-24 11:57:00,
2013-02-24 07:03:00,67.2,66.3,29.94,WSW,252,0.0,2.0,97,0.00,,---,0.00,VWS V14.01,2013-02-24 12:03:00,
2013-02-24 07:08:00,67.2,66.3,29.94,SE,145,1.0,4.0,97,0.00,,---,0.00,VWS V14.01,2013-02-24 12:08:00,
2013-02-24 07:13:00,67.3,66.4,29.94,SW,235,0.0,5.0,97,0.00,,---,0.00,VWS V14.01,2013-02-24 12:13:00,
2013-02-24 07:18:00,67.3,66.4,29.94,SW,231,2.0,5.0,97,0.00,,---,0.00,VWS V14.01,2013-02-24 12:18:00,
2013-02-24 07:23:00,67.4,66.5,29.95,SW,218,0.0,5.0,97,0.00,,---,0.00,VWS V14.01,2013-02-24 12:23:00,
2013-02-24 07:28:00,67.4,66.5,29.95,SW,224,2.0,5.0,97,0.00,,---,0.00,VWS V14.01,2013-02-24 12:28:00,
2013-02-24 07:33:00,67.5,66.6,29.96,NW,311,3.0,4.0,97,0.00,,---,0.00,VWS V14.01,2013-02-24 12:33:00,
2013-02-24 07:38:00,67.6,66.7,29.96,ESE,105,0.0,2.0,97,0.00,,---,0.00,VWS V14.01,2013-02-24 12:38:00,
2013-02-24 07:43:00,67.6,66.4,29.96,West,275,0.0,4.0,96,0.00,,---,0.00,VWS V14.01,2013-02-24 12:43:00,
2013-02-24 07:48:00,67.8,66.6,29.96,SSE,153,1.0,4.0,96,0.00,,---,0.00,VWS V14.01,2013-02-24 12:48:00,
2013-02-24 07:54:00,67.9,66.7,29.96,SW,225,0.0,4.0,96,0.00,,---,0.00,VWS V14.01,2013-02-24 12:54:00,
2013-02-24 07:59:00,67.9,66.7,29.96,SSW,211,1.0,4.0,96,0.00,,---,0.00,VWS V14.01,2013-02-24 12:59:00,
2013-02-24 08:04:00,68.0,66.8,29.96,SSW,197,1.0,3.0,96,0.00,,---,0.00,VWS V14.01,2013-02-24 13:04:00,
2013-02-24 08:09:00,68.0,66.5,29.96,SW,215,1.0,6.0,95,0.00,,---,0.00,VWS V14.01,2013-02-24 13:09:00,
2013-02-24 08:14:00,68.1,66.6,29.96,SE,133,1.0,8.0,95,0.00,,---,0.00,VWS V14.01,2013-02-24 13:14:00,
2013-02-24 08:19:00,68.2,66.7,29.97,West,277,1.0,8.0,95,0.00,,---,0.00,VWS V14.01,2013-02-24 13:19:00,
2013-02-24 08:24:00,68.3,66.8,29.97,NW,311,3.0,8.0,95,0.00,,---,0.00,VWS V14.01,2013-02-24 13:24:00,
2013-02-24 08:29:00,68.4,66.6,29.97,WSW,246,2.0,8.0,94,0.00,,---,0.00,VWS V14.01,2013-02-24 13:29:00,
2013-02-24 08:34:00,68.6,66.8,29.97,SW,220,1.0,5.0,94,0.00,,---,0.00,VWS V14.01,2013-02-24 13:34:00,
2013-02-24 08:39:00,68.8,67.0,29.97,SW,217,0.0,9.0,94,0.00,,---,0.00,VWS V14.01,2013-02-24 13:39:00,
2013-02-24 08:44:00,69.0,66.9,29.97,South,183,1.0,9.0,93,0.00,,---,0.00,VWS V14.01,2013-02-24 13:44:00,
2013-02-24 08:49:00,69.4,67.3,29.97,SW,228,1.0,9.0,93,0.00,,---,0.00,VWS V14.01,2013-02-24 13:49:00,
2013-02-24 08:54:00,69.7,67.3,29.97,West,270,6.0,9.0,92,0.00,,---,0.00,VWS V14.01,2013-02-24 13:54:00,
2013-02-24 08:59:00,70.0,67.3,29.97,SSW,211,2.0,9.0,91,0.00,,---,0.00,VWS V14.01,2013-02-24 13:59:00,
2013-02-24 09:04:00,70.2,67.4,29.97,South,172,1.0,6.0,91,0.00,,---,0.00,VWS V14.01,2013-02-24 14:04:00,
2013-02-24 09:10:00,70.3,67.6,29.97,SW,231,3.0,6.0,91,0.00,,---,0.00,VWS V14.01,2013-02-24 14:10:00,
2013-02-24 09:15:00,70.8,68.1,29.97,WNW,286,3.0,6.0,91,0.00,,---,0.00,VWS V14.01,2013-02-24 14:15:00,
2013-02-24 09:20:00,71.2,67.8,29.97,SSW,211,4.0,9.0,89,0.00,,---,0.00,VWS V14.01,2013-02-24 14:20:00,
2013-02-24 09:25:00,71.3,67.6,29.97,SSW,207,1.0,9.0,88,0.00,,---,0.00,VWS V14.01,2013-02-24 14:25:00,
2013-02-24 09:30:00,71.4,68.0,29.97,WSW,252,4.0,9.0,89,0.00,,---,0.00,VWS V14.01,2013-02-24 14:30:00,
2013-02-24 09:35:00,72.2,68.4,29.97,SSE,156,2.0,6.0,88,0.00,,---,0.00,VWS V14.01,2013-02-24 14:35:00,
2013-02-24 09:40:00,72.8,68.4,29.97,SW,215,3.0,8.0,86,0.00,,---,0.00,VWS V14.01,2013-02-24 14:40:00,
2013-02-24 09:45:00,73.0,68.2,29.98,WNW,285,1.0,12.0,85,0.00,,---,0.00,VWS V14.01,2013-02-24 14:45:00,
2013-02-24 09:50:00,73.1,68.3,29.98,ESE,123,4.0,12.0,85,0.00,,---,0.00,VWS V14.01,2013-02-24 14:50:00,
2013-02-24 09:55:00,73.7,68.9,29.97,SSE,167,2.0,12.0,85,0.00,,---,0.00,VWS V14.01,2013-02-24 14:55:00,
2013-02-24 10:00:00,74.1,68.6,29.98,SSW,195,2.0,12.0,83,0.00,,---,0.00,VWS V14.01,2013-02-24 15:00:00,
2013-02-24 10:05:00,74.6,69.4,29.98,SSW,203,3.0,4.0,84,0.00,,---,0.00,VWS V14.01,2013-02-24 15:05:00,
2013-02-24 10:10:00,75.1,69.2,29.98,West,263,4.0,5.0,82,0.00,,---,0.00,VWS V14.01,2013-02-24 15:10:00,
2013-02-24 10:15:00,75.6,69.0,29.98,WNW,289,4.0,8.0,80,0.00,,---,0.00,VWS V14.01,2013-02-24 15:15:00,
2013-02-24 10:20:00,75.3,69.1,29.98,WSW,242,2.0,9.0,81,0.00,,---,0.00,VWS V14.01,2013-02-24 15:20:00,
2013-02-24 10:25:00,75.3,69.1,29.98,West,263,1.0,9.0,81,0.00,,---,0.00,VWS V14.01,2013-02-24 15:25:00,
2013-02-24 10:30:00,75.4,69.2,29.98,NNW,348,4.0,9.0,81,0.00,,---,0.00,VWS V14.01,2013-02-24 15:30:00,
2013-02-24 10:35:00,75.7,69.5,29.98,SSW,211,2.0,3.0,81,0.00,,---,0.00,VWS V14.01,2013-02-24 15:35:00,
2013-02-24 10:40:00,75.7,69.1,29.98,NNW,339,1.0,4.0,80,0.00,,---,0.00,VWS V14.01,2013-02-24 15:40:00,
2013-02-24 10:45:00,75.9,69.7,29.98,NW,311,3.0,5.0,81,0.00,,---,0.00,VWS V14.01,2013-02-24 15:45:00,
2013-02-24 10:51:00,76.2,69.6,29.98,South,180,2.0,5.0,80,0.00,,---,0.00,VWS V14.01,2013-02-24 15:51:00,
2013-02-24 10:56:00,76.4,69.8,29.98,SW,217,2.0,7.0,80,0.00,,---,0.00,VWS V14.01,2013-02-24 15:56:00,
2013-02-24 11:01:00,76.3,69.3,29.97,West,278,3.0,7.0,79,0.00,,---,0.00,VWS V14.01,2013-02-24 16:01:00,
2013-02-24 11:06:00,76.4,69.4,29.97,WNW,295,1.0,6.0,79,0.00,,---,0.00,VWS V14.01,2013-02-24 16:06:00,
2013-02-24 11:11:00,76.9,69.5,29.98,NE,47,1.0,6.0,78,0.00,,---,0.00,VWS V14.01,2013-02-24 16:11:00,
2013-02-24 11:16:00,77.1,70.1,29.98,South,187,0.0,6.0,79,0.00,,---,0.00,VWS V14.01,2013-02-24 16:16:00,
2013-02-24 11:21:00,77.9,70.5,29.98,South,186,4.0,6.0,78,0.00,,---,0.00,VWS V14.01,2013-02-24 16:21:00,
2013-02-24 11:26:00,78.4,69.8,29.97,SE,146,1.0,8.0,75,0.00,,---,0.00,VWS V14.01,2013-02-24 16:26:00,
2013-02-24 11:31:00,79.1,70.5,29.97,NNE,13,1.0,8.0,75,0.00,,---,0.00,VWS V14.01,2013-02-24 16:31:00,
2013-02-24 11:36:00,79.4,70.0,29.97,WSW,242,1.0,7.0,73,0.00,,---,0.00,VWS V14.01,2013-02-24 16:36:00,
2013-02-24 11:41:00,79.5,70.1,29.96,SSW,205,2.0,7.0,73,0.00,,---,0.00,VWS V14.01,2013-02-24 16:41:00,
2013-02-24 11:46:00,79.4,69.6,29.96,SW,217,8.0,8.0,72,0.00,,---,0.00,VWS V14.01,2013-02-24 16:46:00,
2013-02-24 11:51:00,79.3,69.9,29.96,WNW,301,5.0,8.0,73,0.00,,---,0.00,VWS V14.01,2013-02-24 16:51:00,
2013-02-24 11:57:00,79.9,70.5,29.95,WSW,252,1.0,8.0,73,0.00,,---,0.00,VWS V14.01,2013-02-24 16:57:00,
2013-02-24 12:02:00,80.6,69.9,29.95,SE,131,3.0,3.0,70,0.00,,---,0.00,VWS V14.01,2013-02-24 17:02:00,
2013-02-24 12:07:00,81.0,70.7,29.95,WNW,287,1.0,5.0,71,0.00,,---,0.00,VWS V14.01,2013-02-24 17:07:00,
2013-02-24 12:12:00,81.5,70.4,29.94,West,281,3.0,6.0,69,0.00,,---,0.00,VWS V14.01,2013-02-24 17:12:00,
2013-02-24 12:17:00,82.2,70.2,29.94,SE,143,0.0,6.0,67,0.00,,---,0.00,VWS V14.01,2013-02-24 17:17:00,
2013-02-24 12:22:00,82.9,70.4,29.94,SW,214,2.0,6.0,66,0.00,,---,0.00,VWS V14.01,2013-02-24 17:22:00,
2013-02-24 12:27:00,83.3,71.2,29.93,ESE,119,1.0,7.0,67,0.00,,---,0.00,VWS V14.01,2013-02-24 17:27:00,
2013-02-24 12:32:00,83.2,68.8,29.94,SSE,149,4.0,7.0,62,0.00,,---,0.00,VWS V14.01,2013-02-24 17:32:00,
2013-02-24 12:37:00,83.4,70.4,29.93,SW,214,4.0,7.0,65,0.00,,---,0.00,VWS V14.01,2013-02-24 17:37:00,
2013-02-24 12:42:00,83.6,68.3,29.93,South,187,2.0,9.0,60,0.00,,---,0.00,VWS V14.01,2013-02-24 17:42:00,
2013-02-24 12:47:00,83.6,69.2,29.93,SSW,195,3.0,9.0,62,0.00,,---,0.00,VWS V14.01,2013-02-24 17:47:00,
2013-02-24 12:52:00,84.0,68.6,29.93,SSW,198,4.0,9.0,60,0.00,,---,0.00,VWS V14.01,2013-02-24 17:52:00,
2013-02-24 12:57:00,83.9,69.5,29.93,SSW,198,0.0,9.0,62,0.00,,---,0.00,VWS V14.01,2013-02-24 17:57:00,
2013-02-24 13:02:00,84.1,68.7,29.93,NW,321,6.0,12.0,60,0.00,,---,0.00,VWS V14.01,2013-02-24 18:02:00,
2013-02-24 13:07:00,84.2,68.8,29.92,SSW,212,3.0,12.0,60,0.00,,---,0.00,VWS V14.01,2013-02-24 18:07:00,
2013-02-24 13:12:00,85.0,69.1,29.92,NNW,347,1.0,12.0,59,0.00,,---,0.00,VWS V14.01,2013-02-24 18:12:00,
2013-02-24 13:17:00,84.3,68.4,29.92,West,259,2.0,12.0,59,0.00,,---,0.00,VWS V14.01,2013-02-24 18:17:00,
2013-02-24 13:23:00,84.0,67.7,29.92,North,4,1.0,12.0,58,0.00,,---,0.00,VWS V14.01,2013-02-24 18:23:00,
2013-02-24 13:28:00,83.7,67.4,29.92,SSW,207,6.0,12.0,58,0.00,,---,0.00,VWS V14.01,2013-02-24 18:28:00,
2013-02-24 13:33:00,83.8,67.0,29.92,SSW,212,4.0,5.0,57,0.00,,---,0.00,VWS V14.01,2013-02-24 18:33:00,
2013-02-24 13:38:00,84.6,67.7,29.92,NW,304,2.0,11.0,57,0.00,,---,0.00,VWS V14.01,2013-02-24 18:38:00,
2013-02-24 13:43:00,85.0,67.0,29.92,WNW,295,2.0,11.0,55,0.00,,---,0.00,VWS V14.01,2013-02-24 18:43:00,
2013-02-24 13:48:00,84.7,67.3,29.92,West,277,2.0,11.0,56,0.00,,---,0.00,VWS V14.01,2013-02-24 18:48:00,
2013-02-24 13:53:00,84.5,67.1,29.92,SW,222,2.0,2.0,56,0.00,,---,0.00,VWS V14.01,2013-02-24 18:53:00,
2013-02-24 13:59:00,84.4,67.0,29.92,NNW,346,1.0,4.0,56,0.00,,---,0.00,VWS V14.01,2013-02-24 18:59:00,
2013-02-24 14:04:00,84.2,67.3,29.91,SW,215,2.0,6.0,57,0.00,,---,0.00,VWS V14.01,2013-02-24 19:04:00,
2013-02-24 14:08:00,84.1,67.2,29.91,West,277,0.0,6.0,57,0.00,,---,0.00,VWS V14.01,2013-02-24 19:08:00,
2013-02-24 14:13:00,83.9,67.1,29.91,SW,235,3.0,7.0,57,0.00,,---,0.00,VWS V14.01,2013-02-24 19:13:00,
2013-02-24 14:19:00,83.7,66.9,29.91,WNW,291,2.0,7.0,57,0.00,,---,0.00,VWS V14.01,2013-02-24 19:19:00,
2013-02-24 14:24:00,83.6,66.8,29.91,WSW,249,0.0,7.0,57,0.00,,---,0.00,VWS V14.01,2013-02-24 19:24:00,
2013-02-24 14:29:00,83.5,66.7,29.91,SE,124,0.0,7.0,57,0.00,,---,0.00,VWS V14.01,2013-02-24 19:29:00,
2013-02-24 14:34:00,83.4,67.6,29.91,WNW,297,0.0,2.0,59,0.00,,---,0.00,VWS V14.01,2013-02-24 19:34:00,
2013-02-24 14:39:00,83.2,66.9,29.91,SSW,201,2.0,4.0,58,0.00,,---,0.00,VWS V14.01,2013-02-24 19:39:00,
2013-02-24 14:44:00,82.8,66.5,29.91,West,281,1.0,6.0,58,0.00,,---,0.00,VWS V14.01,2013-02-24 19:44:00,
2013-02-24 14:49:00,82.6,66.8,29.91,SW,226,1.0,6.0,59,0.00,,---,0.00,VWS V14.01,2013-02-24 19:49:00,
2013-02-24 14:54:00,82.6,66.8,29.91,NW,321,2.0,6.0,59,0.00,,---,0.00,VWS V14.01,2013-02-24 19:54:00,
2013-02-24 14:59:00,82.6,66.8,29.91,WNW,285,1.0,6.0,59,0.00,,---,0.00,VWS V14.01,2013-02-24 19:59:00,
2013-02-24 15:04:00,81.8,68.9,29.92,NNW,335,3.0,12.0,65,0.00,,---,0.00,VWS V14.01,2013-02-24 20:04:00,
2013-02-24 15:09:00,80.5,69.8,29.92,NNE,29,10.0,12.0,70,0.00,,---,0.00,VWS V14.01,2013-02-24 20:09:00,
2013-02-24 15:14:00,77.9,70.1,29.92,NE,53,14.0,14.0,77,0.00,,---,0.00,VWS V14.01,2013-02-24 20:14:00,
2013-02-24 15:19:00,76.5,70.2,29.91,East,86,4.0,14.0,81,0.00,,---,0.00,VWS V14.01,2013-02-24 20:19:00,
2013-02-24 15:24:00,76.1,70.6,29.91,NE,34,4.0,14.0,83,0.00,,---,0.00,VWS V14.01,2013-02-24 20:24:00,
2013-02-24 15:30:00,75.9,70.4,29.92,NNE,32,5.0,14.0,83,0.00,,---,0.00,VWS V14.01,2013-02-24 20:30:00,
2013-02-24 15:35:00,75.8,70.3,29.92,NE,50,5.0,7.0,83,0.00,,---,0.00,VWS V14.01,2013-02-24 20:35:00,
2013-02-24 15:40:00,75.5,69.6,29.92,North,356,5.0,11.0,82,0.00,,---,0.00,VWS V14.01,2013-02-24 20:40:00,
2013-02-24 15:45:00,75.4,68.8,29.92,East,89,3.0,11.0,80,0.00,,---,0.00,VWS V14.01,2013-02-24 20:45:00,
2013-02-24 15:50:00,75.5,68.9,29.92,North,358,2.0,11.0,80,0.00,,---,0.00,VWS V14.01,2013-02-24 20:50:00,
2013-02-24 15:55:00,75.4,69.2,29.92,NNE,29,2.0,11.0,81,0.00,,---,0.00,VWS V14.01,2013-02-24 20:55:00,
2013-02-24 16:00:00,75.4,69.2,29.91,NNE,23,1.0,11.0,81,0.00,,---,0.00,VWS V14.01,2013-02-24 21:00:00,
2013-02-24 16:05:00,75.4,69.5,29.92,ENE,72,3.0,6.0,82,0.00,,---,0.00,VWS V14.01,2013-02-24 21:05:00,
2013-02-24 16:10:00,75.3,69.4,29.92,NE,39,2.0,6.0,82,0.00,,---,0.00,VWS V14.01,2013-02-24 21:10:00,
2013-02-24 16:15:00,75.4,69.9,29.92,NNE,32,2.0,8.0,83,0.00,,---,0.00,VWS V14.01,2013-02-24 21:15:00,
2013-02-24 16:20:00,75.4,70.2,29.92,NW,322,8.0,9.0,84,0.00,,---,0.00,VWS V14.01,2013-02-24 21:20:00,
2013-02-24 16:25:00,75.1,69.6,29.92,NE,54,2.0,9.0,83,0.00,,---,0.00,VWS V14.01,2013-02-24 21:25:00,
2013-02-24 16:30:00,74.9,69.7,29.92,ENE,70,4.0,9.0,84,0.00,,---,0.00,VWS V14.01,2013-02-24 21:30:00,
2013-02-24 16:36:00,74.3,69.5,29.92,NE,40,6.0,10.0,85,0.00,,---,0.00,VWS V14.01,2013-02-24 21:36:00,
2013-02-24 16:41:00,73.7,69.6,29.91,NE,46,2.0,12.0,87,0.00,,---,0.00,VWS V14.01,2013-02-24 21:41:00,
2013-02-24 16:46:00,73.2,69.1,29.91,ENE,61,3.0,12.0,87,0.00,,---,0.00,VWS V14.01,2013-02-24 21:46:00,
2013-02-24 16:51:00,72.7,68.9,29.92,NE,36,6.0,12.0,88,0.00,,---,0.00,VWS V14.01,2013-02-24 21:51:00,
2013-02-24 16:56:00,72.3,68.6,29.92,NNE,30,4.0,12.0,88,0.00,,---,0.00,VWS V14.01,2013-02-24 21:56:00,
2013-02-24 17:01:00,72.3,68.6,29.92,North,6,2.0,12.0,88,0.00,,---,0.00,VWS V14.01,2013-02-24 22:01:00,
2013-02-24 17:06:00,72.2,68.8,29.92,NE,34,2.0,9.0,89,0.00,,---,0.00,VWS V14.01,2013-02-24 22:06:00,
2013-02-24 17:11:00,72.1,68.3,29.92,NNE,32,3.0,9.0,88,0.00,,---,0.00,VWS V14.01,2013-02-24 22:11:00,
2013-02-24 17:16:00,71.8,68.4,29.93,North,6,3.0,9.0,89,0.00,,---,0.00,VWS V14.01,2013-02-24 22:16:00,
2013-02-24 17:22:00,71.7,68.3,29.93,NW,314,1.0,11.0,89,0.00,,---,0.00,VWS V14.01,2013-02-24 22:22:00,
2013-02-24 17:27:00,71.4,68.0,29.92,NE,43,3.0,11.0,89,0.00,,---,0.00,VWS V14.01,2013-02-24 22:27:00,
2013-02-24 17:32:00,71.1,67.7,29.92,NNE,32,2.0,3.0,89,0.00,,---,0.00,VWS V14.01,2013-02-24 22:32:00,
2013-02-24 17:37:00,70.9,67.5,29.92,East,91,1.0,6.0,89,0.00,,---,0.00,VWS V14.01,2013-02-24 22:37:00,
2013-02-24 17:42:00,70.8,67.4,29.92,North,6,4.0,7.0,89,0.00,,---,0.00,VWS V14.01,2013-02-24 22:42:00,
2013-02-24 17:47:00,70.8,67.4,29.92,NNW,333,3.0,7.0,89,0.00,,---,0.00,VWS V14.01,2013-02-24 22:47:00,
2013-02-24 17:52:00,70.8,67.4,29.93,NNW,333,1.0,7.0,89,0.00,,---,0.00,VWS V14.01,2013-02-24 22:52:00,
2013-02-24 17:57:00,70.7,67.6,29.93,NW,313,3.0,7.0,90,0.00,,---,0.00,VWS V14.01,2013-02-24 22:57:00,
2013-02-24 18:02:00,70.7,67.6,29.93,NE,47,3.0,5.0,90,0.00,,---,0.00,VWS V14.01,2013-02-24 23:02:00,
2013-02-24 18:07:00,70.6,67.5,29.93,NW,321,1.0,5.0,90,0.00,,---,0.00,VWS V14.01,2013-02-24 23:07:00,
2013-02-24 18:13:00,70.6,67.5,29.93,NE,54,2.0,5.0,90,0.00,,---,0.00,VWS V14.01,2013-02-24 23:13:00,
2013-02-24 18:18:00,70.5,67.4,29.93,NNW,327,1.0,5.0,90,0.00,,---,0.00,VWS V14.01,2013-02-24 23:18:00,
2013-02-24 18:23:00,70.4,67.3,29.94,ENE,61,2.0,5.0,90,0.00,,---,0.00,VWS V14.01,2013-02-24 23:23:00,
2013-02-24 18:28:00,70.3,67.2,29.93,NNE,27,2.0,7.0,90,0.00,,---,0.00,VWS V14.01,2013-02-24 23:28:00,
2013-02-24 18:33:00,70.1,67.0,29.93,NE,49,3.0,8.0,90,0.00,,---,0.00,VWS V14.01,2013-02-24 23:33:00,
2013-02-24 18:38:00,70.0,66.9,29.93,NE,54,5.0,8.0,90,0.00,,---,0.00,VWS V14.01,2013-02-24 23:38:00,
2013-02-24 18:43:00,69.9,66.8,29.93,NE,49,1.0,8.0,90,0.00,,---,0.00,VWS V14.01,2013-02-24 23:43:00,
2013-02-24 18:48:00,69.9,66.8,29.93,East,81,3.0,8.0,90,0.00,,---,0.00,VWS V14.01,2013-02-24 23:48:00,
2013-02-24 18:53:00,69.8,67.1,29.94,ENE,70,1.0,8.0,91,0.00,,---,0.00,VWS V14.01,2013-02-24 23:53:00,
2013-02-24 18:58:00,69.8,67.1,29.94,East,79,1.0,8.0,91,0.00,,---,0.00,VWS V14.01,2013-02-24 23:58:00,
2013-02-24 19:03:00,69.8,67.1,29.94,NE,43,3.0,4.0,91,0.00,,---,0.00,VWS V14.01,2013-02-25 00:03:00,
2013-02-24 19:09:00,69.8,67.1,29.94,NE,46,1.0,6.0,91,0.00,,---,0.00,VWS V14.01,2013-02-25 00:09:00,
2013-02-24 19:14:00,69.8,67.1,29.95,NE,56,1.0,6.0,91,0.00,,---,0.00,VWS V14.01,2013-02-25 00:14:00,
2013-02-24 19:19:00,69.8,67.1,29.95,ENE,68,0.0,6.0,91,0.00,,---,0.00,VWS V14.01,2013-02-25 00:19:00,
2013-02-24 19:24:00,69.7,67.0,29.95,ENE,70,2.0,6.0,91,0.00,,---,0.00,VWS V14.01,2013-02-25 00:24:00,
2013-02-24 19:29:00,69.7,67.0,29.95,ENE,66,2.0,6.0,91,0.00,,---,0.00,VWS V14.01,2013-02-25 00:29:00,
2013-02-24 19:34:00,69.7,67.0,29.95,ENE,70,2.0,4.0,91,0.00,,---,0.00,VWS V14.01,2013-02-25 00:34:00,
2013-02-24 19:39:00,69.7,67.3,29.95,NNE,29,1.0,4.0,92,0.00,,---,0.00,VWS V14.01,2013-02-25 00:39:00,
2013-02-24 19:44:00,69.7,67.3,29.95,NE,48,1.0,5.0,92,0.00,,---,0.00,VWS V14.01,2013-02-25 00:44:00,
2013-02-24 19:49:00,69.7,67.3,29.94,ENE,66,4.0,5.0,92,0.00,,---,0.00,VWS V14.01,2013-02-25 00:49:00,
2013-02-24 19:55:00,69.7,67.3,29.95,NE,48,2.0,6.0,92,0.00,,---,0.00,VWS V14.01,2013-02-25 00:55:00,
2013-02-24 20:00:00,69.6,67.2,29.95,ENE,61,2.0,6.0,92,0.00,,---,0.00,VWS V14.01,2013-02-25 01:00:00,
2013-02-24 20:05:00,69.6,67.5,29.95,NNE,16,4.0,5.0,93,0.00,,---,0.00,VWS V14.01,2013-02-25 01:05:00,
2013-02-24 20:10:00,69.6,67.5,29.96,ENE,67,3.0,5.0,93,0.00,,---,0.00,VWS V14.01,2013-02-25 01:10:00,
2013-02-24 20:15:00,69.6,67.5,29.96,ENE,60,1.0,2.0,93,0.00,,---,0.00,VWS V14.01,2013-02-25 01:15:00,
2013-02-24 20:20:00,69.5,67.4,29.96,ENE,65,1.0,4.0,93,0.00,,---,0.00,VWS V14.01,2013-02-25 01:20:00,
2013-02-24 20:25:00,69.5,67.4,29.97,NE,43,1.0,4.0,93,0.00,,---,0.00,VWS V14.01,2013-02-25 01:25:00,
2013-02-24 20:30:00,69.5,67.4,29.97,ENE,77,0.0,4.0,93,0.00,,---,0.00,VWS V14.01,2013-02-25 01:30:00,
2013-02-24 20:35:00,69.5,67.4,29.97,ENE,63,2.0,2.0,93,0.00,,---,0.00,VWS V14.01,2013-02-25 01:35:00,
2013-02-24 20:40:00,69.5,67.4,29.97,ENE,74,1.0,3.0,93,0.00,,---,0.00,VWS V14.01,2013-02-25 01:40:00,
2013-02-24 20:46:00,69.5,67.4,29.96,NE,39,1.0,5.0,93,0.00,,---,0.00,VWS V14.01,2013-02-25 01:46:00,
2013-02-24 20:51:00,69.6,67.5,29.96,NE,54,0.0,5.0,93,0.00,,---,0.00,VWS V14.01,2013-02-25 01:51:00,
2013-02-24 20:56:00,69.6,67.5,29.97,NE,55,2.0,5.0,93,0.00,,---,0.00,VWS V14.01,2013-02-25 01:56:00,
2013-02-24 21:01:00,69.7,67.6,29.97,ENE,70,2.0,5.0,93,0.00,,---,0.00,VWS V14.01,2013-02-25 02:01:00,
2013-02-24 21:06:00,69.7,67.6,29.97,ENE,70,0.0,2.0,93,0.00,,---,0.00,VWS V14.01,2013-02-25 02:06:00,
2013-02-24 21:11:00,69.8,67.7,29.97,ENE,70,0.0,2.0,93,0.00,,---,0.00,VWS V14.01,2013-02-25 02:11:00,
2013-02-24 21:16:00,69.8,67.7,29.97,ENE,70,0.0,2.0,93,0.00,,---,0.00,VWS V14.01,2013-02-25 02:16:00,
2013-02-24 21:21:00,69.8,67.7,29.97,ENE,76,2.0,2.0,93,0.00,,---,0.00,VWS V14.01,2013-02-25 02:21:00,
2013-02-24 21:26:00,69.8,67.7,29.97,East,99,1.0,2.0,93,0.00,,---,0.00,VWS V14.01,2013-02-25 02:26:00,
2013-02-24 21:31:00,69.9,67.8,29.97,ENE,72,1.0,3.0,93,0.00,,---,0.00,VWS V14.01,2013-02-25 02:31:00,
2013-02-24 21:37:00,69.9,67.5,29.97,NE,37,1.0,2.0,92,0.00,,---,0.00,VWS V14.01,2013-02-25 02:37:00,
2013-02-24 21:42:00,70.0,67.6,29.97,ENE,59,1.0,3.0,92,0.00,,---,0.00,VWS V14.01,2013-02-25 02:42:00,
2013-02-24 21:47:00,70.0,67.6,29.96,ENE,59,0.0,3.0,92,0.00,,---,0.00,VWS V14.01,2013-02-25 02:47:00,
2013-02-24 21:52:00,69.9,67.5,29.96,ENE,72,0.0,3.0,92,0.00,,---,0.00,VWS V14.01,2013-02-25 02:52:00,
2013-02-24 21:57:00,69.9,67.5,29.97,ENE,73,0.0,3.0,92,0.00,,---,0.00,VWS V14.01,2013-02-25 02:57:00,
2013-02-24 22:02:00,69.8,67.4,29.97,ENE,74,0.0,0.0,92,0.00,,---,0.00,VWS V14.01,2013-02-25 03:02:00,
2013-02-24 22:07:00,69.7,67.3,29.96,ENE,74,0.0,0.0,92,0.00,,---,0.00,VWS V14.01,2013-02-25 03:07:00,
2013-02-24 22:12:00,69.6,67.5,29.95,ENE,73,0.0,1.0,93,0.00,,---,0.00,VWS V14.01,2013-02-25 03:12:00,
2013-02-24 22:17:00,69.5,67.4,29.95,ENE,68,1.0,2.0,93,0.00,,---,0.00,VWS V14.01,2013-02-25 03:17:00,
2013-02-24 22:23:00,69.4,67.3,29.95,ENE,68,0.0,2.0,93,0.00,,---,0.00,VWS V14.01,2013-02-25 03:23:00,
2013-02-24 22:28:00,69.4,67.3,29.96,ENE,68,0.0,2.0,93,0.00,,---,0.00,VWS V14.01,2013-02-25 03:28:00,
2013-02-24 22:33:00,69.3,67.2,29.96,ENE,68,0.0,0.0,93,0.00,,---,0.00,VWS V14.01,2013-02-25 03:33:00,
2013-02-24 22:38:00,69.3,67.5,29.95,NE,37,2.0,2.0,94,0.00,,---,0.00,VWS V14.01,2013-02-25 03:38:00,
2013-02-24 22:43:00,69.3,67.2,29.94,ENE,71,0.0,2.0,93,0.00,,---,0.00,VWS V14.01,2013-02-25 03:43:00,
2013-02-24 22:48:00,69.4,67.6,29.93,East,84,1.0,2.0,94,0.00,,---,0.00,VWS V14.01,2013-02-25 03:48:00,
2013-02-24 22:53:00,69.3,67.2,29.94,East,79,0.0,2.0,93,0.00,,---,0.00,VWS V14.01,2013-02-25 03:53:00,
2013-02-24 22:58:00,69.2,67.1,29.94,East,79,0.0,2.0,93,0.00,,---,0.00,VWS V14.01,2013-02-25 03:58:00,
2013-02-24 23:03:00,69.0,66.9,29.94,East,79,0.0,0.0,93,0.00,,---,0.00,VWS V14.01,2013-02-25 04:03:00,
2013-02-24 23:08:00,69.0,67.2,29.93,East,79,0.0,1.0,94,0.00,,---,0.00,VWS V14.01,2013-02-25 04:08:00,
2013-02-24 23:13:00,68.8,67.0,29.94,East,79,0.0,1.0,94,0.00,,---,0.00,VWS V14.01,2013-02-25 04:13:00,
2013-02-24 23:18:00,68.8,67.0,29.93,East,79,0.0,1.0,94,0.00,,---,0.00,VWS V14.01,2013-02-25 04:18:00,
2013-02-24 23:24:00,68.7,66.9,29.93,East,79,0.0,1.0,94,0.00,,---,0.00,VWS V14.01,2013-02-25 04:24:00,
2013-02-24 23:29:00,68.6,66.8,29.93,East,79,0.0,1.0,94,0.00,,---,0.00,VWS V14.01,2013-02-25 04:29:00,
2013-02-24 23:34:00,68.7,67.2,29.93,NE,44,0.0,0.0,95,0.00,,---,0.00,VWS V14.01,2013-02-25 04:34:00,
2013-02-24 23:39:00,68.9,67.4,29.92,NW,307,0.0,1.0,95,0.00,,---,0.00,VWS V14.01,2013-02-25 04:39:00,
2013-02-24 23:44:00,69.0,67.2,29.92,NW,309,0.0,1.0,94,0.00,,---,0.00,VWS V14.01,2013-02-25 04:44:00,
2013-02-24 23:49:00,68.9,67.4,29.92,NE,47,2.0,2.0,95,0.00,,---,0.00,VWS V14.01,2013-02-25 04:49:00,
2013-02-24 23:54:00,69.0,67.5,29.92,NE,39,1.0,2.0,95,0.00,,---,0.00,VWS V14.01,2013-02-25 04:54:00,
2013-02-24 23:59:00,69.1,67.6,29.92,NE,39,0.0,2.0,95,0.00,,---,0.00,VWS V14.01,2013-02-25 04:59:00,